This demonstration page uses our WeatherBlox Daily Observations layout. Learn more.

Left ArrowRight Arrow

41.12389, -100.76542

Hourly Observations for July 31, 2015

Temp ( °F °C ) Dew Point ( °F °C ) Humidity (%) Winds ( mph kmh ) Pressure ( in mb ) Visibility ( mi km ) Precip ( " mm )
12:53 am 00:53 Clear 65 18.3 60 15.6 84 84 NW 3 6 30.14 1021 10 16 0.00 0.00
1:53 am 01:53 Clear 65 18.3 60 15.6 84 84 Calm 30.14 1021 10 16 0.00 0.00
2:53 am 02:53 Clear 63 17.2 60 15.6 90 90 E 5 7 30.14 1021 10 16 0.00 0.00
3:53 am 03:53 Clear 63 17.2 60 15.6 90 90 ESE 3 6 30.12 1020 10 16 0.00 0.00
4:53 am 04:53 Clear 62 16.7 59 15 90 90 ENE 3 6 30.13 1020 10 16 0.00 0.00
5:53 am 05:53 Clear 61 16.1 58 14.4 90 90 Calm 30.13 1020 10 16 0.00 0.00
6:53 am 06:53 Sunny 61 16.1 59 15 93 93 NNE 3 6 30.15 1021 10 16 0.00 0.00
7:53 am 07:53 Sunny 66 18.9 62 16.7 87 87 Calm 30.16 1021 10 16 0.00 0.00
8:53 am 08:53 Sunny 71 21.7 64 17.8 79 79 Calm 30.16 1021 10 16 0.00 0.00
9:53 am 09:53 Sunny 77 25 64 17.8 64 64 W 5 7 30.14 1021 10 16 0.00 0.00
10:53 am 10:53 Sunny 83 28.3 66 18.9 57 57 VRB 5 7 30.13 1020 10 16 0.00 0.00
11:53 am 11:53 Sunny 85 29.4 66 18.9 53 53 SW 3 6 30.13 1020 10 16 0.00 0.00
12:53 pm 12:53 Sunny 89 31.7 62 16.7 41 41 W 3 6 30.11 1020 10 16 0.00 0.00
1:53 pm 13:53 Sunny 90 32.2 64 17.8 42 42 N 3 6 30.09 1019 10 16 0.00 0.00
2:53 pm 14:53 Sunny 91 32.8 63 17.2 39 39 E 5 7 30.06 1018 10 16 0.00 0.00
3:53 pm 15:53 Sunny 92 33.3 60 15.6 34 34 SSE 6 9 30.04 1017 10 16 0.00 0.00
4:48 pm 16:48 Sunny with Nearby Thunderstorms 91 33 57 14 32 32 S 9 15 29.91 1013 10 16 0.00 0.00
4:53 pm 16:53 Sunny with Nearby Thunderstorms 92 33.3 56 13.3 30 30 S 5 7 30.04 1017 10 16 0.00 0.00
5:32 pm 17:32 Sunny 86 30 61 16 43 43 ENE 15 24 29.91 1013 10 16 0.00 0.00
5:53 pm 17:53 Sunny 89 31.7 60 15.6 38 38 E 8 13 30.01 1016 10 16 0.00 0.00
6:53 pm 18:53 Sunny 89 31.7 60 15.6 38 38 ESE 3 6 30.00 1016 10 16 0.00 0.00
7:53 pm 19:53 Sunny 84 28.9 67 19.4 57 57 ESE 6 9 30.00 1016 10 16 0.00 0.00
8:53 pm 20:53 Sunny 77 25 66 18.9 69 69 ESE 8 13 30.01 1016 10 16 0.00 0.00
9:53 pm 21:53 Clear 73 22.8 63 17.2 71 71 ESE 20 31 30.04 1017 10 16 0.00 0.00
10:53 pm 22:53 Clear 70 21.1 61 16.1 73 73 ESE 15 24 30.05 1018 10 16 0.00 0.00
11:53 pm 23:53 Clear 69 20.6 59 15 70 70 ESE 10 17 30.06 1018 10 16 0.00 0.00

Powered by AerisWeather